Lexington Weather

Lexington, Massachusetts, USA

45°F
4/22/2024 9:37am 
  • Lexington Conditions: Clear
  • Temperature: 45.0°F / 7.2°CWarmer 2.0°F than last hour.
  • Dew Point: 24.4°FDecreased 2.6°Fsince last hour.
  • Relative Humidity: 44%Decreased 9.0% since last hour.
  • Wind: Calm, 10-min avg: Calm, gust: 1 mph
  • Barometer: 29.97 in Steady
  • Visibility: 10 miles
  • Rain Today: 0.00 in
  •   

Regional Weather Roundup
for Boston, MA

        
000
ASUS41 KBOX 210210
RWRBOX

REGIONAL WEATHER ROUNDUP
NATIONAL WEATHER SERVICE BOSTON/NORTON MA
1000 PM EDT SAT APR 20 2024

NOTE:  "FAIR" INDICATES FEW OR NO CLOUDS BELOW 12,000 FEET WITH NO 
SIGNIFICANT WEATHER AND/OR OBSTRUCTIONS TO VISIBILITY.

MAZALL-210300-
EASTERN MASSACHUSETTS
  
CITY           SKY/WX    TMP DP  RH WIND       PRES   REMARKS
BOSTON         PTCLDY    50  31  48 W16G28    29.91R                  
BEVERLY        MOCLDY    50  34  54 NW13G20   29.89R                  
LAWRENCE       PTCLDY    49  31  49 W8        29.92R                  
BEDFORD        PTCLDY    48  32  53 NW12      29.91R                  
NORWOOD        PTCLDY    52  31  44 NW12G23   29.92R                  
MARSHFIELD     CLOUDY    50  41  71 NW10G18   29.89R                  
PLYMOUTH       PTCLDY    50  44  80 NW9       29.88R                  
TAUNTON        MOCLDY    51  41  68 NW7       29.91R                  
NEW BEDFORD    PTCLDY    50  46  86 W6        29.90R                  
$$

MAZALL-210300-
CAPE COD AND THE ISLANDS
  
CITY           SKY/WX    TMP DP  RH WIND       PRES   REMARKS
FALMOUTH       MOCLDY    48  48 100 W5        29.89                   
HYANNIS        CLOUDY    49  47  93 W9        29.87R                  
CHATHAM        CLOUDY    49  48  97 VRB3      29.87R                  
PROVINCETOWN   PTCLDY    48  48 100 W8        29.88R                  
NANTUCKET      CLOUDY    45  45 100 W9        29.89R FOG              
MARTHAS VNYRD  CLOUDY    48  48 100 W7        29.90R                  
$$
 
MAZALL-210300-
CENTRAL AND WESTERN MASSACHUSETTS
  
CITY           SKY/WX    TMP DP  RH WIND       PRES   REMARKS
WORCESTER      CLEAR     44  26  49 NW16G29   29.91R                  
FITCHBURG      CLEAR     46  29  51 NW6       29.93R                  
ORANGE         CLEAR     44  28  53 NW15G23   29.94S                  
SPRINGFIELD    CLEAR     47  26  43 NW8       29.94R                  
WESTFIELD      CLEAR     46  26  45 N10       29.97R                  
NORTH ADAMS    PTCLDY    43  25  49 W9        29.98R                  
PITTSFIELD     CLEAR     39  25  57 W18G28    29.95R WCI  30          
$$
 
RIZALL-210300-
RHODE ISLAND
  
CITY           SKY/WX    TMP DP  RH WIND       PRES   REMARKS
PROVIDENCE     PTCLDY    50  36  58 NW10G26   29.93R                  
NEWPORT        PTCLDY    50  38  63 NW12G22   29.91R                  
BLOCK ISLAND   PTCLDY    48  40  73 NW12G17   29.93R                  
SMITHFIELD     PTCLDY    47  32  56 NW14      29.94R                  
WESTERLY       CLEAR     50  37  61 VRB5G18   29.93R                  
$$
 
CTZALL-210300-
CONNECTICUT
  
CITY           SKY/WX    TMP DP  RH WIND       PRES   REMARKS
BRADLEY INTL   CLEAR     48  29  47 NW16G24   29.97R                  
HARTFORD       CLEAR     49  31  49 NW14G25   29.98R                  
PLAINVILLE     FAIR      47  31  51 NW9       29.97R                  
BRIDGEPORT     CLEAR     50  35  56 N20G28    29.95R                  
DANBURY        CLEAR     49  30  48 NW9G23    29.99R                  
GROTON         CLEAR     50  36  58 N17G29    29.94R                  
NEW HAVEN      CLEAR     51  35  54 N14G24    29.96R                  
CHESTER        CLEAR     48  34  57 NW13G21   29.95R                  
MERIDEN        CLEAR     49  30  48 NW12G25   29.98R                  
WILLIMANTIC    CLEAR     47  32  56 NW9       29.96R                  
OXFORD         CLEAR     45  32  60 NW12G20   29.97R                  
$$

MEZ002-015-021-024-NHZ003-005-008-011-012-014-VTZ005-008-210300-
NORTHERN NEW ENGLAND
  
CITY           SKY/WX    TMP DP  RH WIND       PRES   REMARKS
PORTLAND ME    CLOUDY    48  33  56 W10       29.85R                  
BANGOR ME      CLOUDY    45  43  93 NW7       29.80R                  
CONCORD NH     CLEAR     44  34  67 W6        29.90R                  
MANCHESTER NH  PTCLDY    49  30  48 W12G23    29.89R                  
NASHUA NH      CLEAR     47  31  53 W6        29.92R                  
PORTSMOUTH NH  MOCLDY    49  33  53 W8        29.87S                  
JAFFREY NH     CLEAR     44  29  55 W9        29.92R                  
KEENE NH       CLEAR     43  29  57 CALM      29.94R                  
BURLINGTON VT  CLEAR     42  29  59 W7        29.95R                  
MT. WASHINGTON SNOW      18  18 100 NW62G75     N/A  VSB 0   WCI  -8  
$$

NYZ052-076-210300-
EASTERN NEW YORK
  
CITY           SKY/WX    TMP DP  RH WIND       PRES   REMARKS
ALBANY         PTCLDY    43  25  49 W12       30.03R                  
NEW YORK CITY  PTCLDY    53  32  44 NW15G26   29.97R                  
$$
 
ANZALL-210300-
MARINE OBSERVATIONS
  
STATION/POSITION TIME  TEMP    WIND        PRES    VSBY  WAVE
                       AIR SEA DIR/SP/G                  HT/PER
                 (UTC) (F)     (DEG/KT/KT) (MB)    (MI)  (FT/S)
BOSTON BUOY      0150   50     310/ 21/ 27 1011.6R         2/11
BUZZARDS BAY     0100   48     270/ 11/ 14 1012.4R
NANTUCKET SOUND  0150   48 48  270/ 14/ 19 1011.7R         1/ 2
MASS BAY-STELLWA 0004   49 47  210/ 10/ 12 1009.4   1 7/8  2/ 5
ISLE OF SHOALS   0100   52     300/ 33/ 37 1010.0R
S OF BLOCK IS    0156      44                N/A           3/ 8
$$

......................KEY.........................
  SKY/WX - SKY CONDITION/PRESENT WEATHER
  TMP    - TEMPERATURE IN FAHRENHEIT
  DWPT   - DEWPOINT IN FAHRENHEIT
  RH     - RELATIVE HUMIDITY IN PERCENT
  WIND   - DIRECTION AND SPEED IN MPH
  PRES   - MEAN SEA LEVEL PRESSURE IN INCHES OF HG
  WCI    - WIND CHILL INDEX
  VSB    - VISIBILITY IN MILES
  HX     - HEAT INDEX
  TC     - TEMPERATURE IN CELSIUS
  VRB    - VARIABLE WIND DIRECTION
  N/A    - NOT AVAILABLE
  
      

Other recent Regional Weather Roundups

Mon Apr 22, 9:10am EDT

Mon Apr 22, 8:10am EDT

Mon Apr 22, 7:10am EDT

Mon Apr 22, 6:10am EDT

Mon Apr 22, 5:10am EDT

Mon Apr 22, 4:10am EDT

Mon Apr 22, 3:10am EDT

Mon Apr 22, 2:10am EDT

Mon Apr 22, 1:10am EDT

Mon Apr 22, 12:10am EDT

Sun Apr 21, 11:10pm EDT

Sun Apr 21, 10:10pm EDT

Sun Apr 21, 9:10pm EDT

Sun Apr 21, 8:10pm EDT

Sun Apr 21, 7:10pm EDT

Sun Apr 21, 6:10pm EDT

Sun Apr 21, 5:10pm EDT

Sun Apr 21, 4:10pm EDT

Sun Apr 21, 3:10pm EDT

Sun Apr 21, 2:10pm EDT

Sun Apr 21, 1:10pm EDT

Sun Apr 21, 12:10pm EDT

Sun Apr 21, 11:10am EDT

Sun Apr 21, 10:10am EDT

Sun Apr 21, 9:10am EDT

Sun Apr 21, 8:10am EDT

Sun Apr 21, 7:10am EDT

Sun Apr 21, 6:10am EDT

Sun Apr 21, 5:10am EDT

Sun Apr 21, 4:10am EDT

Sun Apr 21, 3:10am EDT

Sun Apr 21, 2:10am EDT

Sun Apr 21, 1:10am EDT

Sun Apr 21, 12:10am EDT

Sat Apr 20, 11:10pm EDT

Sat Apr 20, 9:10pm EDT

Sat Apr 20, 8:10pm EDT

Sat Apr 20, 7:10pm EDT

Sat Apr 20, 6:10pm EDT

Sat Apr 20, 5:10pm EDT

Sat Apr 20, 4:10pm EDT

Sat Apr 20, 3:10pm EDT

Sat Apr 20, 2:10pm EDT

Sat Apr 20, 1:10pm EDT

Sat Apr 20, 12:10pm EDT

Sat Apr 20, 11:10am EDT

Sat Apr 20, 10:10am EDT

Sat Apr 20, 9:10am EDT

Sat Apr 20, 8:10am EDT

Sat Apr 20, 7:10am EDT

Sat Apr 20, 6:10am EDT

Sat Apr 20, 5:10am EDT

Sat Apr 20, 4:10am EDT

Sat Apr 20, 3:10am EDT

Sat Apr 20, 2:10am EDT

Sat Apr 20, 1:10am EDT

Sat Apr 20, 12:10am EDT

Fri Apr 19, 11:10pm EDT

Fri Apr 19, 10:10pm EDT

Fri Apr 19, 9:10pm EDT

Fri Apr 19, 8:10pm EDT

Fri Apr 19, 7:10pm EDT

Fri Apr 19, 6:10pm EDT

Fri Apr 19, 5:10pm EDT

Fri Apr 19, 4:10pm EDT

Fri Apr 19, 3:10pm EDT

Fri Apr 19, 2:10pm EDT

Fri Apr 19, 1:10pm EDT

Fri Apr 19, 12:10pm EDT

Fri Apr 19, 11:10am EDT

Fri Apr 19, 10:10am EDT

Fri Apr 19, 9:10am EDT

Fri Apr 19, 8:10am EDT

Fri Apr 19, 7:10am EDT

Fri Apr 19, 6:10am EDT

Fri Apr 19, 5:10am EDT

Fri Apr 19, 4:10am EDT

Fri Apr 19, 3:10am EDT

Fri Apr 19, 2:10am EDT

Fri Apr 19, 1:10am EDT

Fri Apr 19, 12:10am EDT

Thu Apr 18, 11:10pm EDT

Thu Apr 18, 10:10pm EDT

Thu Apr 18, 9:10pm EDT

Thu Apr 18, 8:10pm EDT

Thu Apr 18, 7:10pm EDT

Thu Apr 18, 6:10pm EDT

Thu Apr 18, 5:10pm EDT

Thu Apr 18, 4:10pm EDT

Thu Apr 18, 3:10pm EDT

Thu Apr 18, 2:10pm EDT

Thu Apr 18, 1:10pm EDT

Thu Apr 18, 12:10pm EDT

Thu Apr 18, 11:10am EDT

Thu Apr 18, 10:10am EDT

Thu Apr 18, 9:10am EDT

Thu Apr 18, 8:10am EDT

Thu Apr 18, 7:10am EDT

Thu Apr 18, 6:10am EDT

Thu Apr 18, 5:10am EDT

Thu Apr 18, 4:10am EDT

Thu Apr 18, 3:10am EDT

Thu Apr 18, 2:10am EDT

Thu Apr 18, 1:10am EDT

Thu Apr 18, 12:10am EDT

Wed Apr 17, 11:10pm EDT

Wed Apr 17, 10:10pm EDT

Wed Apr 17, 9:10pm EDT

Wed Apr 17, 8:10pm EDT

Wed Apr 17, 7:10pm EDT

Wed Apr 17, 6:10pm EDT

Wed Apr 17, 5:10pm EDT

Wed Apr 17, 4:10pm EDT

Wed Apr 17, 3:10pm EDT

Wed Apr 17, 2:10pm EDT

Wed Apr 17, 1:10pm EDT

Wed Apr 17, 12:10pm EDT

Wed Apr 17, 11:10am EDT

Wed Apr 17, 10:10am EDT

Wed Apr 17, 9:10am EDT

Wed Apr 17, 8:10am EDT

Wed Apr 17, 7:10am EDT

Wed Apr 17, 6:10am EDT

Wed Apr 17, 5:10am EDT

Wed Apr 17, 4:10am EDT

Wed Apr 17, 3:10am EDT

Wed Apr 17, 2:10am EDT

Wed Apr 17, 1:10am EDT

Wed Apr 17, 12:10am EDT

Tue Apr 16, 11:10pm EDT

Tue Apr 16, 10:10pm EDT

Tue Apr 16, 9:10pm EDT

Tue Apr 16, 8:10pm EDT

Tue Apr 16, 7:10pm EDT

Tue Apr 16, 6:10pm EDT

Tue Apr 16, 5:10pm EDT

Tue Apr 16, 4:10pm EDT

Tue Apr 16, 3:10pm EDT

Tue Apr 16, 2:10pm EDT

Tue Apr 16, 1:10pm EDT

Tue Apr 16, 12:10pm EDT

Tue Apr 16, 11:10am EDT

Tue Apr 16, 10:10am EDT

Tue Apr 16, 9:10am EDT

Tue Apr 16, 8:10am EDT

Tue Apr 16, 7:10am EDT

Tue Apr 16, 6:10am EDT

Tue Apr 16, 5:10am EDT

Tue Apr 16, 4:10am EDT

Tue Apr 16, 3:10am EDT

Tue Apr 16, 2:10am EDT

Tue Apr 16, 1:10am EDT

Tue Apr 16, 12:10am EDT

Mon Apr 15, 11:10pm EDT

Mon Apr 15, 10:10pm EDT

Mon Apr 15, 9:10pm EDT

Mon Apr 15, 8:10pm EDT

Mon Apr 15, 7:10pm EDT

Mon Apr 15, 6:10pm EDT

Mon Apr 15, 5:10pm EDT

Mon Apr 15, 4:10pm EDT

Mon Apr 15, 3:10pm EDT

Mon Apr 15, 2:10pm EDT

Mon Apr 15, 1:10pm EDT

Mon Apr 15, 12:10pm EDT

Mon Apr 15, 11:10am EDT

Mon Apr 15, 10:10am EDT